This is the latest recevied weather packets stored in our database for station/object HB9TJR-3. If no packets are shown the sender has not sent any weather packets the latest 10 day(s).
| Time | Temp. | Humidity | Pressure | Rain* | Wind** | Luminosity | Snow |
|---|---|---|---|---|---|---|---|
| 1787465251 | 13.33° C | 73% | 871.4 hPa | 0 mm | - | - | - |
| 1787464290 | 12.78° C | 74% | 871.3 hPa | 0 mm | - | - | - |
| 1787463331 | 12.22° C | 75% | 871.3 hPa | 0 mm | - | - | - |
| 1787461410 | 11.11° C | 77% | 871 hPa | 0 mm | - | - | - |
| 1787460451 | 11.11° C | 76% | 870.9 hPa | 0 mm | - | - | - |
| 1787459491 | 11.11° C | 80% | 870.7 hPa | 0 mm | - | - | - |
| 1787458530 | 10.56° C | 81% | 870.7 hPa | 0 mm | - | - | - |
| 1787456610 | 10.56° C | 80% | 870.4 hPa | 0 mm | - | - | - |
| 1787455653 | 10.56° C | 79% | 870.4 hPa | 0 mm | - | - | - |
| 1787454690 | 10.56° C | 79% | 870.3 hPa | 0 mm | - | - | - |
| 1787453730 | 10.56° C | 77% | 870.3 hPa | 0 mm | - | - | - |
| 1787451810 | 10.56° C | 77% | 870.5 hPa | 0 mm | - | - | - |
| 1787450851 | 11.11° C | 75% | 870.6 hPa | 0 mm | - | - | - |
| 1787449890 | 11.11° C | 75% | 870.6 hPa | 0 mm | - | - | - |
| 1787448930 | 11.11° C | 73% | 870.6 hPa | 0 mm | - | - | - |
| 1787447010 | 11.11° C | 76% | 870.6 hPa | 0 mm | - | - | - |
| 1787446051 | 11.67° C | 70% | 870.6 hPa | 0 mm | - | - | - |
| 1787445090 | 11.67° C | 68% | 870.7 hPa | 0 mm | - | - | - |
| 1787444130 | 11.67° C | 68% | 870.8 hPa | 0 mm | - | - | - |
| 1787442210 | 12.22° C | 68% | 870.9 hPa | 0 mm | - | - | - |
| 1787441251 | 12.22° C | 68% | 870.9 hPa | 0 mm | - | - | - |
| 1787440290 | 12.22° C | 68% | 871 hPa | 0 mm | - | - | - |
| 1787439330 | 12.22° C | 68% | 870.9 hPa | 0 mm | - | - | - |
| 1787437410 | 12.22° C | 70% | 870.9 hPa | 0 mm | - | - | - |
| 1787436451 | 12.22° C | 73% | 870.9 hPa | 0 mm | - | - | - |
* Rain latest hour (hover to see other rain measurements)
** Current wind speed in m/s (hover to see current wind gust speed)